Tracking 30685 objects as of 18-Jun-2025
HD Live streaming from Space Station
objects crossing your sky now

MORDOVIA-IOT

Track MORDOVIA-IOT now!
10-day predictions


NORAD ID: 61765
Int'l Code: 2024-199AG
Perigee: 438.7 km
Apogee: 454.3 km
Inclination: 97.4 °
Period: 93.4 minutes
Semi major axis: 6817 km
RCS: Unknown
Launch date: November 4, 2024
Source: Commonwealth of Independent States (former USSR) (CIS)
Launch site: VOSTOCHNY COSMODROME (VOSTO)
Your satellite tracking list
Your tracking list is empty




NASA's NSSDC Master Catalog

Two Line Element Set (TLE):
1 61765U 24199AG  25168.88254532  .00028340  00000-0  65756-3 0  9998
2 61765  97.3523  38.9979 0011475 136.5035 223.7119 15.42284463 78315
Source of the keplerian elements: AFSPC